Location: Kellogg
(38.0159°N, 90.0546°W)
Time: 21:51:32
(UTC+00:00)

Vanguard 2 - Pass Details

Date: 26 September 2024
Orbit: 552 x 2910 km, 32.9° (Epoch: 09 October)

Event Time Altitude Azimuth Distance (km) Brightness Sun altitude
Rises 11:13:20 0° 262° (W) 2,948 - -8.4°
Exits shadow 11:15:33 - 247° (WSW) 2,336 9.4 -8.0°
Reaches altitude 10° 11:16:03 10° 242° (WSW) 2,230 9.3 -7.9°
Maximum altitude 11:19:32 18° 199° (SSW) 2,014 9.5 -7.2°
Drops below altitude 10° 11:24:00 10° 158° (SSE) 2,978 10.8 -6.3°
Sets 11:28:27 0° 142° (SE) 4,416 12.0 -5.5°
